TimeEST,TemperatureF,Dew PointF,Humidity,Sea Level PressureIn,VisibilityMPH,Wind Direction,Wind SpeedMPH,Gust SpeedMPH,PrecipitationIn,Events,Conditions,WindDirDegrees,DateUTC
12:53 AM,28.9,19.9,69,30.39,10.0,NW,4.6,-,N/A,,Clear,320,2012-11-29 05:53:00
2:53 AM,26.1,19.0,75,30.40,10.0,Calm,Calm,-,N/A,,Clear,0,2012-11-29 07:53:00
3:53 AM,25.0,19.0,78,30.40,10.0,Calm,Calm,-,N/A,,Clear,0,2012-11-29 08:53:00
4:53 AM,25.0,19.0,78,30.40,10.0,WSW,3.5,-,N/A,,Clear,240,2012-11-29 09:53:00
5:53 AM,23.0,19.9,88,30.44,10.0,SW,4.6,-,N/A,,Clear,230,2012-11-29 10:53:00
6:53 AM,21.9,19.0,89,30.44,10.0,Calm,Calm,-,N/A,,Clear,0,2012-11-29 11:53:00
7:53 AM,24.1,19.9,84,30.45,10.0,SSW,4.6,-,N/A,,Clear,210,2012-11-29 12:53:00
8:53 AM,30.9,24.1,76,30.46,9.0,Calm,Calm,-,N/A,,Clear,0,2012-11-29 13:53:00
9:53 AM,39.0,24.1,55,30.48,10.0,West,3.5,-,N/A,,Clear,270,2012-11-29 14:53:00
10:53 AM,46.0,23.0,40,30.47,10.0,WSW,3.5,-,N/A,,Clear,240,2012-11-29 15:53:00
11:53 AM,48.9,23.0,36,30.45,10.0,Variable,3.5,-,N/A,,Clear,0,2012-11-29 16:53:00
12:53 PM,51.1,24.1,35,30.41,10.0,WSW,5.8,-,N/A,,Clear,240,2012-11-29 17:53:00
1:53 PM,54.0,26.1,34,30.39,10.0,WSW,10.4,-,N/A,,Clear,250,2012-11-29 18:53:00
2:53 PM,54.0,26.1,34,30.36,10.0,Variable,3.5,-,N/A,,Clear,0,2012-11-29 19:53:00
3:53 PM,53.1,25.0,34,30.36,10.0,SW,6.9,-,N/A,,Clear,220,2012-11-29 20:53:00
4:53 PM,50.0,26.1,39,30.36,10.0,SSW,3.5,-,N/A,,Clear,200,2012-11-29 21:53:00
5:53 PM,41.0,26.1,55,30.37,10.0,South,3.5,-,N/A,,Clear,170,2012-11-29 22:53:00
6:53 PM,39.0,26.1,60,30.38,10.0,Calm,Calm,-,N/A,,Clear,0,2012-11-29 23:53:00
7:53 PM,36.0,25.0,64,30.39,10.0,Calm,Calm,-,N/A,,Clear,0,2012-11-30 00:53:00
8:53 PM,34.0,26.1,73,30.40,10.0,Calm,Calm,-,N/A,,Clear,0,2012-11-30 01:53:00
9:53 PM,33.1,26.1,75,30.39,10.0,Calm,Calm,-,N/A,,Clear,0,2012-11-30 02:53:00
10:53 PM,30.0,25.0,82,30.38,10.0,Calm,Calm,-,N/A,,Clear,0,2012-11-30 03:53:00
11:53 PM,28.9,24.1,82,30.38,10.0,Calm,Calm,-,N/A,,Clear,0,2012-11-30 04:53:00